Altus AFB, OK

1:54 AM CDT on October 22, 2019 (GMT -0500)
Altus Air Force Base

Weather History for KLTS - August, 2019

Change the Weather History Date:

Wednesday, August 28, 2019

  Actual Average Record
Temperature  
Mean Temperature 80 °F -  
Max Temperature 90 °F 91 °F 111 °F (2011)
Min Temperature 70 °F 68 °F 62 °F (2010)
Cooling Degree Days 15    
Growing Degree Days 30 (Base 50)    
Moisture  
Dew Point 67 °F    
Average Humidity 68    
Maximum Humidity 90    
Minimum Humidity 44    
Precipitation  
Precipitation 0.00 in - - ()
Sea Level Pressure  
Sea Level Pressure 30.04 in    
Wind  
Wind Speed 5 mph ()    
Max Wind Speed 10 mph    
Max Gust Speed -    
Visibility 10.0 miles    
Events      
Averages and records for this station are not official NWS values.
T = Trace of Precipitation, MM = Missing Value Source: Averaged Metar Reports

Daily Weather History Graph

Daily Weather History Graph

Search for Another Location

Airport or City:

Astronomy

Aug. 28, 2019 Rise Set
Actual Time 7:07 AM CDT 8:09 PM CDT
Civil Twilight 6:41 AM CDT 8:34 PM CDT
Nautical Twilight 6:10 AM CDT 9:05 PM CDT
Astronomical Twilight 5:38 AM CDT 9:37 PM CDT
Moon 4:48 AM CDT (8/28) 7:16 PM CDT (8/28)
Length of Visible Light 13h 53m
Length of Day
13h 01m
Waning Crescent, 4% of the Moon is Illuminated
Aug 28
Waning Crescent
Aug 30
New
Sep 5
First Quarter
Sep 13
Full
Sep 21
Last Quarter

Hourly Weather History & Observations

Time (CDT) Temp. Heat Index Dew Point Humidity Pressure Visibility Wind Dir Wind Speed Gust Speed Precip Events Conditions
3:56 AM 73.4 °F - 70.2 °F 90% 30.08 in 10.0 mi NE 3.5 mph - N/A   Overcast
4:56 AM 72.7 °F - 67.8 °F 85% 30.07 in 10.0 mi NNE 5.8 mph - N/A   Overcast
5:56 AM 71.6 °F - 66.7 °F 85% 30.07 in 10.0 mi NE 6.9 mph - N/A   Overcast
6:56 AM 70.9 °F - 66.0 °F 85% 30.09 in 10.0 mi NNE 3.5 mph - N/A   Overcast
7:26 AM 71.6 °F - 66.2 °F 83% 30.09 in 10.0 mi NE 4.6 mph - N/A   Overcast
7:56 AM 70.7 °F - 65.3 °F 83% 30.09 in 10.0 mi NE 6.9 mph - N/A   Mostly Cloudy
8:41 AM 71.6 °F - 64.4 °F 78% 30.11 in 10.0 mi NNE 6.9 mph - N/A   Mostly Cloudy
8:56 AM 72.9 °F - 63.7 °F 73% 30.11 in 10.0 mi NE 5.8 mph - N/A   Mostly Cloudy
9:11 AM 73.4 °F - 64.4 °F 73% 30.09 in 10.0 mi NE 5.8 mph - N/A   Scattered Clouds
9:56 AM 76.5 °F - 64.6 °F 67% 30.10 in 10.0 mi East 3.5 mph - N/A   Mostly Cloudy
10:56 AM 78.4 °F - 66.6 °F 67% 30.11 in 10.0 mi SSW 3.5 mph - N/A   Mostly Cloudy
11:56 AM 81.1 °F 83.9 °F 67.8 °F 64% 30.10 in 10.0 mi WSW 4.6 mph - N/A   Scattered Clouds
12:56 PM 82.6 °F 85.3 °F 67.3 °F 60% 30.08 in 10.0 mi North 3.5 mph - N/A   Scattered Clouds
1:56 PM 86.7 °F 89.0 °F 65.8 °F 50% 30.06 in 10.0 mi NE 3.5 mph - N/A   Mostly Cloudy
2:56 PM 87.8 °F 90.4 °F 66.2 °F 49% 30.03 in 10.0 mi ESE 4.6 mph - N/A   Scattered Clouds
3:56 PM 88.9 °F 91.4 °F 66.6 °F 47% 30.01 in 10.0 mi SSE 6.9 mph - N/A   Scattered Clouds
4:56 PM 90.5 °F 93.3 °F 66.7 °F 45% 29.97 in 10.0 mi Calm Calm - N/A   Clear
5:56 PM 89.6 °F 91.5 °F 65.3 °F 44% 29.96 in 10.0 mi SSE 9.2 mph - N/A   Scattered Clouds
6:56 PM 87.6 °F 91.5 °F 68.4 °F 53% 29.94 in 10.0 mi SSE 10.4 mph - N/A   Scattered Clouds
7:56 PM 82.9 °F 86.3 °F 68.9 °F 62% 29.96 in 10.0 mi SSE 6.9 mph - N/A   Scattered Clouds
8:56 PM 79.9 °F - 67.8 °F 66% 29.96 in 10.0 mi SSE 9.2 mph - N/A   Clear
9:56 PM 78.1 °F - 67.5 °F 70% 29.97 in 10.0 mi SE 9.2 mph - N/A   Clear
10:56 PM 76.8 °F - 66.7 °F 71% 30.00 in 10.0 mi SE 6.9 mph - N/A   Partly Cloudy
11:56 PM 74.5 °F - 67.1 °F 78% 30.00 in 10.0 mi SSE 8.1 mph - N/A   Scattered Clouds